When you browse on this site, cookies collect data to enhance your experience and personalize the content and advertising you see.
Visit our Privacy Policy to learn more. By continuing to use the site, you agree to this use of cookies and data.
  • In Österreich
  • Länderverzeichnis
  • Für 7 Tage
  • Wassertemperatur
  • Satellitenkarten
  • Wetterkarte
  • News
  • Widgets
  • user-avatar
    Anmelden

    Stündliche Wetter Tibissa

    Heute, 23 April, Dienstag

    Zeit Temperatur Niederschläge Wind Luftdruck Luftfeuchtigkeit
    00:00 +14°C° 0 mm 4 m/S 676 mmHg 50%
    01:00 +13°C° 0 mm 4 m/S 676 mmHg 50%
    02:00 +13°C° 0 mm 4 m/S 676 mmHg 51%
    03:00 +12°C° 0 mm 4 m/S 676 mmHg 53%
    04:00 +12°C° 0 mm 4 m/S 676 mmHg 54%
    05:00 +12°C° 0 mm 4 m/S 676 mmHg 54%
    06:00 +13°C° 0 mm 4 m/S 676 mmHg 54%
    07:00 +13°C° 0 mm 5 m/S 677 mmHg 54%
    08:00 +15°C° 0 mm 6 m/S 678 mmHg 47%
    09:00 +16°C° 0 mm 8 m/S 678 mmHg 40%
    10:00 +18°C° 0 mm 10 m/S 679 mmHg 33%
    11:00 +19°C° 0 mm 10 m/S 679 mmHg 31%
    12:00 +21°C° 0 mm 9 m/S 680 mmHg 29%
    13:00 +22°C° 0 mm 9 m/S 680 mmHg 27%
    14:00 +22°C° 0 mm 9 m/S 680 mmHg 27%
    15:00 +22°C° 0 mm 9 m/S 680 mmHg 27%
    16:00 +22°C° 0 mm 9 m/S 680 mmHg 27%
    17:00 +21°C° 0 mm 8 m/S 680 mmHg 28%
    18:00 +20°C° 0 mm 7 m/S 680 mmHg 30%
    19:00 +19°C° 0 mm 6 m/S 680 mmHg 32%
    20:00 +17°C° 0 mm 5 m/S 681 mmHg 35%
    21:00 +17°C° 0 mm 4 m/S 681 mmHg 37%
    22:00 +16°C° 0 mm 3 m/S 681 mmHg 40%
    23:00 +16°C° 0 mm 3 m/S 681 mmHg 40%

    Morgen, 24 April, Mittwoch

    Zeit Temperatur Niederschläge Wind Luftdruck Luftfeuchtigkeit
    00:00 +16°C° 0 mm 2 m/S 681 mmHg 41%
    01:00 +15°C° 0 mm 2 m/S 681 mmHg 42%
    02:00 +15°C° 0 mm 2 m/S 681 mmHg 41%
    03:00 +15°C° 0 mm 2 m/S 681 mmHg 40%
    04:00 +14°C° 0 mm 2 m/S 681 mmHg 40%
    05:00 +15°C° 0 mm 2 m/S 681 mmHg 41%
    06:00 +14°C° 0 mm 3 m/S 681 mmHg 42%
    07:00 +14°C° 0 mm 4 m/S 681 mmHg 43%
    08:00 +17°C° 0 mm 6 m/S 682 mmHg 37%
    09:00 +20°C° 0 mm 8 m/S 683 mmHg 31%
    10:00 +23°C° 0 mm 10 m/S 683 mmHg 25%
    11:00 +24°C° 0 mm 10 m/S 683 mmHg 24%
    12:00 +26°C° 0 mm 10 m/S 684 mmHg 22%
    13:00 +27°C° 0 mm 10 m/S 684 mmHg 21%
    14:00 +27°C° 0 mm 10 m/S 684 mmHg 22%
    15:00 +26°C° 0 mm 10 m/S 683 mmHg 23%
    16:00 +26°C° 0 mm 10 m/S 683 mmHg 24%
    17:00 +23°C° 0 mm 8 m/S 683 mmHg 29%
    18:00 +22°C° 0 mm 6 m/S 683 mmHg 33%
    19:00 +21°C° 0 mm 5 m/S 683 mmHg 37%
    20:00 +20°C° 0 mm 4 m/S 683 mmHg 44%
    21:00 +18°C° 0 mm 4 m/S 684 mmHg 51%
    22:00 +16°C° 0 mm 3 m/S 684 mmHg 58%
    23:00 +16°C° 0 mm 2 m/S 684 mmHg 62%

    übermorgen, 25 April, Donnerstag

    Zeit Temperatur Niederschläge Wind Luftdruck Luftfeuchtigkeit
    00:00 +15°C° 0 mm 2 m/S 684 mmHg 66%
    01:00 +14°C° 0 mm 1 m/S 683 mmHg 70%
    02:00 +14°C° 0 mm 1 m/S 683 mmHg 72%
    03:00 +13°C° 0 mm 1 m/S 683 mmHg 74%
    04:00 +12°C° 0 mm 0 m/S 683 mmHg 77%
    05:00 +12°C° 0 mm 0 m/S 683 mmHg 72%
    06:00 +13°C° 0 mm 0 m/S 684 mmHg 67%
    07:00 +14°C° 0 mm 0 m/S 684 mmHg 63%
    08:00 +17°C° 0 mm 0 m/S 685 mmHg 52%
    09:00 +19°C° 0 mm 0 m/S 686 mmHg 42%
    10:00 +22°C° 0 mm 0 m/S 687 mmHg 32%
    11:00 +25°C° 0 mm 1 m/S 687 mmHg 28%
    12:00 +27°C° 0 mm 1 m/S 687 mmHg 23%
    13:00 +28°C° 0 mm 2 m/S 687 mmHg 18%
    14:00 +29°C° 0 mm 3 m/S 687 mmHg 17%
    15:00 +29°C° 0 mm 4 m/S 687 mmHg 16%
    16:00 +30°C° 0 mm 5 m/S 687 mmHg 15%
    17:00 +28°C° 0 mm 5 m/S 687 mmHg 19%
    18:00 +27°C° 0 mm 4 m/S 687 mmHg 22%
    19:00 +25°C° 0 mm 4 m/S 687 mmHg 26%
    20:00 +23°C° 0 mm 4 m/S 687 mmHg 34%
    21:00 +21°C° 0 mm 3 m/S 687 mmHg 42%
    22:00 +20°C° 0 mm 3 m/S 688 mmHg 50%
    23:00 +19°C° 0 mm 2 m/S 687 mmHg 54%

    26 April, Freitag

    Zeit Temperatur Niederschläge Wind Luftdruck Luftfeuchtigkeit
    00:00 +18°C° 0 mm 2 m/S 687 mmHg 59%
    01:00 +18°C° 0 mm 1 m/S 687 mmHg 64%
    02:00 +18°C° 0 mm 1 m/S 687 mmHg 64%
    03:00 +18°C° 0 mm 1 m/S 687 mmHg 64%
    04:00 +16°C° 0 mm 1 m/S 686 mmHg 64%
    05:00 +16°C° 0 mm 0 m/S 687 mmHg 60%
    06:00 +17°C° 0 mm 0 m/S 687 mmHg 56%
    07:00 +18°C° 0 mm 0 m/S 688 mmHg 52%
    08:00 +22°C° 0 mm 1 m/S 688 mmHg 45%
    09:00 +23°C° 0 mm 1 m/S 689 mmHg 39%
    10:00 +25°C° 0 mm 1 m/S 690 mmHg 32%
    11:00 +26°C° 0 mm 2 m/S 690 mmHg 29%
    12:00 +27°C° 0 mm 2 m/S 690 mmHg 26%
    13:00 +28°C° 0 mm 2 m/S 690 mmHg 23%
    14:00 +28°C° 0 mm 3 m/S 689 mmHg 24%
    15:00 +28°C° 0 mm 4 m/S 689 mmHg 25%
    16:00 +28°C° 0 mm 4 m/S 689 mmHg 25%
    17:00 +26°C° 0.1 mm 5 m/S 689 mmHg 34%
    18:00 +25°C° 0.1 mm 5 m/S 689 mmHg 42%
    19:00 +22°C° 0.1 mm 6 m/S 689 mmHg 50%
    20:00 +20°C° 0 mm 5 m/S 689 mmHg 58%
    21:00 +19°C° 0 mm 5 m/S 690 mmHg 67%
    22:00 +17°C° 0 mm 4 m/S 690 mmHg 75%
    23:00 +15°C° 0 mm 4 m/S 690 mmHg 77%

    27 April, Samstag

    Zeit Temperatur Niederschläge Wind Luftdruck Luftfeuchtigkeit
    00:00 +16°C° 0 mm 3 m/S 690 mmHg 79%
    01:00 +14°C° 0 mm 3 m/S 690 mmHg 82%
    02:00 +13°C° 0 mm 3 m/S 689 mmHg 81%
    03:00 +13°C° 0 mm 3 m/S 689 mmHg 81%
    04:00 +12°C° 0 mm 3 m/S 689 mmHg 81%
    05:00 +12°C° 0 mm 3 m/S 689 mmHg 78%
    06:00 +12°C° 0 mm 3 m/S 689 mmHg 76%
    07:00 +12°C° 0 mm 3 m/S 690 mmHg 73%
    08:00 +14°C° 0 mm 3 m/S 690 mmHg 67%
    09:00 +16°C° 0 mm 3 m/S 690 mmHg 61%
    10:00 +17°C° 0 mm 4 m/S 691 mmHg 55%
    11:00 +18°C° 0 mm 4 m/S 691 mmHg 51%
    12:00 +20°C° 0 mm 4 m/S 691 mmHg 47%
    13:00 +21°C° 0 mm 4 m/S 691 mmHg 43%
    14:00 +21°C° 0 mm 4 m/S 691 mmHg 43%
    15:00 +21°C° 0 mm 5 m/S 690 mmHg 43%
    16:00 +21°C° 0 mm 5 m/S 690 mmHg 43%
    17:00 +20°C° 0 mm 5 m/S 690 mmHg 47%
    18:00 +19°C° 0 mm 6 m/S 690 mmHg 51%
    19:00 +16°C° 0 mm 6 m/S 690 mmHg 54%
    20:00 +15°C° 0 mm 5 m/S 690 mmHg 56%
    21:00 +14°C° 0 mm 5 m/S 690 mmHg 58%
    22:00 +12°C° 0 mm 4 m/S 690 mmHg 60%
    23:00 +12°C° 0 mm 4 m/S 690 mmHg 61%

    28 April, Sonntag

    Zeit Temperatur Niederschläge Wind Luftdruck Luftfeuchtigkeit
    00:00 +11°C° 0 mm 3 m/S 690 mmHg 63%
    01:00 +11°C° 0 mm 3 m/S 690 mmHg 64%
    02:00 +10°C° 0 mm 3 m/S 690 mmHg 66%
    03:00 +10°C° 0 mm 3 m/S 689 mmHg 68%
    04:00 +10°C° 0 mm 2 m/S 689 mmHg 69%
    05:00 +10°C° 0 mm 2 m/S 689 mmHg 65%
    06:00 +10°C° 0 mm 3 m/S 689 mmHg 61%
    07:00 +10°C° 0 mm 3 m/S 689 mmHg 57%
    08:00 +12°C° 0 mm 3 m/S 689 mmHg 48%
    09:00 +14°C° 0 mm 4 m/S 690 mmHg 40%
    10:00 +15°C° 0 mm 4 m/S 690 mmHg 31%
    11:00 +18°C° 0 mm 4 m/S 690 mmHg 29%
    12:00 +19°C° 0 mm 4 m/S 690 mmHg 27%
    13:00 +20°C° 0 mm 5 m/S 689 mmHg 25%
    14:00 +20°C° 0 mm 4 m/S 689 mmHg 25%
    15:00 +21°C° 0 mm 4 m/S 689 mmHg 25%
    16:00 +21°C° 0 mm 4 m/S 689 mmHg 25%
    17:00 +20°C° 0 mm 4 m/S 688 mmHg 30%
    18:00 +19°C° 0 mm 4 m/S 688 mmHg 35%
    19:00 +17°C° 0 mm 5 m/S 688 mmHg 41%
    20:00 +17°C° 0 mm 4 m/S 688 mmHg 48%
    21:00 +14°C° 0 mm 3 m/S 688 mmHg 55%
    22:00 +14°C° 0 mm 2 m/S 688 mmHg 62%
    23:00 +14°C° 0 mm 1 m/S 688 mmHg 65%
    Mehr zeigen